Flag for Bolivia Weather past 2 weeks in Cochabamba, Bolivia

Now
66 °F

Partly sunny.


Feels Like: 66 °F
Forecast: 58 / 77 °F
Wind: 5 mph from Northwest

Location: Cochabamba Airport

Current Time: Dec 25, 2014 at 8:12:56 AM

Latest Report: Dec 25, 2014 at 8:00 AM


Visibility: 5 mi

Pressure: 30.24 "Hg

Humidity: 64%

Dew point: 54 °F

Location of CochabambaLocation

Historic Weather in Cochabamba — Graph

°F

Cochabamba temperature yesterday

Maximum temperature yesterday: 82 °F (at 2:00 PM)
Minimum temperature yesterday: 54 °F (at 4:00 AM)
Average temperature yesterday: 68 °F

Past Weeks' High & Low Weather Summary

 TemperatureHumidityPressure
High88 °F (Dec 10, 2:00 PM)100% (Dec 18, 7:00 AM)30.39 "Hg (Dec 18, 7:00 AM)
Low52 °F (Dec 21, 6:00 AM)10% (Dec 21, 3:00 PM)29.92 "Hg (Dec 20, 4:00 PM)
Average67 °F56%30.18 "Hg
* Reported Dec 10 7:00 AM — Dec 25 7:00 AM, Cochabamba, Weather by CustomWeather, © 2014

Note: Actual official high and low records may vary slightly from our data, if they occured in-between our weather recording intervals... More about our weather records

Advertising

Cochabamba weather history for previous 24 hours

 ConditionsComfort  
Time TempWeatherWind HumidityBarometerVisibility
7:00 AM
Dec 25
64 °FBroken clouds.No wind68%30.21 "Hg3 mi
6:00 AM59 °FScattered clouds.No wind82%30.18 "Hg3 mi
5:00 AM61 °FPassing clouds.6 mph83%30.18 "HgN/A
4:00 AM63 °FPartly cloudy.No wind68%30.15 "HgN/A
3:00 AM64 °FPartly cloudy.5 mph68%30.15 "HgN/A
2:00 AM64 °FPassing clouds.N/A68%30.18 "Hg6 mi
1:00 AM64 °FPartly cloudy.No wind68%30.18 "HgN/A
12:00 AM68 °FPassing clouds.3 mph56%30.18 "HgN/A
11:00 PM
Dec 24
68 °FPassing clouds.5 mph56%30.15 "HgN/A
10:00 PM70 °FPassing clouds.8 mph57%30.15 "HgN/A
9:00 PM70 °FPartly cloudy.12 mph53%30.12 "HgN/A
8:00 PM72 °FPartly cloudy.13 mph50%30.12 "HgN/A
7:00 PM75 °FPartly cloudy.14 mph44%30.07 "HgN/A
6:00 PM79 °FPartly sunny.3 mph32%30.04 "HgN/A
5:00 PM82 °FPartly sunny.5 mph28%30.01 "HgN/A
4:00 PM81 °FPartly sunny.6 mph30%30.04 "HgN/A
3:00 PM79 °FPartly sunny.5 mph32%30.07 "HgN/A
2:00 PM82 °FPartly sunny.5 mph32%30.09 "HgN/A
1:00 PM79 °FScattered clouds.5 mph34%30.12 "HgN/A
12:00 PM75 °FScattered clouds.6 mph41%30.18 "HgN/A
11:00 AM73 °FScattered clouds.No wind44%30.21 "HgN/A
10:00 AM70 °FScattered clouds.3 mph50%30.24 "HgN/A
9:00 AM66 °FScattered clouds.No wind60%30.27 "HgN/A
8:00 AM61 °FBroken clouds.No wind77%30.27 "Hg5 mi
Weather by CustomWeather, © 2014

See weather overviewHow to use our weather pages